#timestamp,LO_Frequency,Hit,StdDev 
1623744015.8,286047000.9,N
1623744035.6,286046998.9,N
1623744055.5,286046996.9,N
1623744075.3,286046997.0,N
1623744095.1,286046996.6,N
1623744115.9,286046996.7,N
1623744135.7,286046997.4,N
1623744155.5,286046997.4,N
1623744175.4,286046998.0,N
1623744195.2,286047002.8,N
1623744215.1,286046998.8,N
1623744216.0,286046998.8,N
1623744235.8,286047001.2,N
1623744255.6,286046999.8,N
1623744275.5,286046998.5,N
1623744295.3,286047000.6,N
1623744345.2,286046996.9,E
1623744355.1,286047001.1,N
1623744375.8,286046999.9,P
1623744395.7,286047001.5,N
1623744445.5,286047004.0,E
1623744455.5,286047000.5,N
1623744475.3,286046999.2,P
1623744495.1,286046999.0,N
1623744515.9,286046997.2,Y
1623744535.7,286046997.8,P
1623744555.6,286046996.0,P
1623744575.4,286046995.9,N
1623744595.2,286046994.4,Y
1623744615.1,286046997.9,P
1623744616.0,286046997.9,P
1623744635.8,286046997.9,P
1623744655.6,286046996.0,Y
1623744675.5,286046996.8,P
1623744695.3,286046999.0,N
1623744715.2,286046998.1,N
1623744735.9,286046999.6,N
1623744755.7,286046997.2,N
1623744775.6,286046996.8,Y
1623744795.4,286047000.7,P
1623744815.2,286046998.6,N
1623744835.1,286046998.8,N
1623744836.0,286046998.8,N
1623744855.8,286046998.7,N
1623744875.7,286046999.5,N
1623744895.5,286046999.5,N
1623744915.3,286046999.0,N
1623744935.2,286046999.3,N
1623744955.0,286046999.4,N
1623744955.9,286046999.4,N
1623744975.7,286046999.5,N
1623744995.6,286046997.2,Y
1623745015.4,286046999.0,P
1623745035.3,286046998.6,P
1623745055.1,286047001.2,P
1623745075.8,286046998.9,N
1623745095.7,286046999.9,N
1623745115.5,286047002.7,Y
1623745135.4,286047002.4,P
1623745155.2,286047002.6,N
1623745175.0,286047004.0,N
1623745175.9,286047004.0,N
1623745195.8,286047004.1,N
1623745215.6,286047002.0,N
1623745235.4,286047000.7,N
1623745255.3,286046999.2,N
1623745275.1,286046999.6,N
1623745295.9,286046999.4,N
1623745315.7,286046998.8,N
1623745335.5,286046999.5,N
1623745355.4,286046999.4,N
1623745375.2,286046999.3,N
1623745395.0,286046998.8,N
1623745395.9,286046998.8,N
1623745415.8,286046999.5,N
1623745435.6,286046997.8,N
1623745455.5,286046998.6,N
1623745475.3,286047000.5,N
1623745495.1,286047000.8,N
1623745515.9,286046998.5,N
1623745535.7,286046998.3,N
1623745555.5,286046998.7,N
1623745575.4,286046998.7,N
1623745595.2,286046997.0,N
1623745615.1,286046997.8,N
1623745616.0,286046997.8,N
1623745635.8,286046996.6,N
1623745655.6,286046997.2,N
1623745675.5,286046997.8,N
1623745695.3,286046994.9,N
1623745715.2,286046995.4,N
1623745735.9,286046995.8,N
1623745755.7,286046995.2,N
1623745775.6,286046996.2,N
1623745795.4,286046998.0,N
1623745815.3,286046997.8,N
1623745835.1,286046998.6,N
1623745836.0,286046998.6,N
1623745855.8,286046996.9,N
1623745875.7,286046996.8,N
1623745895.5,286046997.4,N
1623745915.3,286046997.8,N
1623745935.2,286046997.4,N
1623745955.0,286046997.3,N
1623745955.9,286046997.3,N
1623745975.8,286046997.5,N
1623745995.6,286046995.7,Y
1623746015.4,286046998.9,P
1623746035.3,286046996.5,P
1623746055.1,286046996.7,P
1623746075.8,286046997.4,N
1623746095.7,286046997.8,N
1623746115.5,286046997.9,N
1623746135.4,286046996.7,Y
1623746155.2,286047002.8,P
1623746175.0,286047000.2,N
1623746175.9,286047000.2,N
1623746195.8,286047000.8,N
1623746215.6,286047002.8,N
1623746235.4,286047001.8,N
1623746255.3,286047002.1,N
1623746275.1,286047000.1,N
1623746295.9,286047002.8,N
1623746315.7,286047002.4,N
1623746335.5,286047003.3,N
1623746355.4,286047007.4,Y
1623746375.2,286047003.5,P
1623746395.1,286047002.8,N
1623746396.0,286047002.8,P
1623746415.8,286046999.7,N
1623746435.6,286047000.0,N
1623746455.5,286047001.0,N
1623746475.3,286047001.2,N
1623746495.1,286046998.7,N
1623746515.9,286046999.6,N
1623746535.7,286046999.6,N
1623746555.6,286046997.6,N
1623746575.4,286046995.5,N
1623746595.2,286046997.6,N
1623746615.1,286046995.6,N
1623746616.0,286046995.6,N
1623746635.8,286046994.9,N
1623746655.6,286046997.9,N
1623746675.5,286046997.5,N
1623746695.3,286046997.5,N
1623746715.2,286046996.1,N
1623746735.9,286046995.6,N
1623746755.7,286046996.2,N
1623746775.6,286046995.7,N
1623746795.4,286046994.9,N
1623746815.2,286046996.9,N
1623746835.1,286046997.3,N
1623746836.0,286046997.3,N
1623746855.8,286046997.8,N
1623746875.7,286046997.4,N
1623746895.5,286047011.9,Y
1623746915.3,286046998.4,P
1623746935.2,286046996.6,P
1623746955.0,286046996.7,P
1623746955.9,286046996.7,Y
1623746975.8,286047000.8,P
1623746995.6,286047000.9,N
1623747015.4,286047000.3,N
1623747035.3,286047000.2,N
1623747055.1,286047002.5,N
1623747075.9,286047002.5,N
1623747095.7,286047002.6,N
1623747115.5,286047002.4,N
1623747135.4,286047002.4,N
1623747155.2,286047002.7,N
1623747175.0,286047000.1,N
1623747175.9,286047000.1,N
1623747195.8,286046999.8,N
1623747215.6,286047002.5,N
1623747235.5,286047002.3,N
1623747255.3,286046999.8,N
1623747275.1,286047001.6,N
1623747295.9,286047001.4,N
1623747315.7,286047002.2,N
1623747335.5,286047002.0,N
1623747355.4,286047002.3,N
1623747375.2,286047002.3,N
1623747395.0,286047002.2,N
1623747396.0,286047002.2,N
1623747415.8,286047000.0,N
1623747435.6,286047000.5,N
1623747455.5,286047000.9,N
1623747475.3,286047001.0,N
1623747495.1,286047000.3,N
1623747515.9,286046999.7,N
1623747535.7,286046999.7,N
1623747555.5,286047002.8,N
1623747575.4,286046999.9,N
1623747595.2,286047000.3,N
